SCP
0 0 0 0 0 0 0 -0 -0 -0 0 0 -0 -0 -0 -0 -0 -0 0 0 0 0
0 0 0 0 0 0 0 -0 0 -0 0 0 0 -0 -0 -0 -0 0 0 0 0 0
0 0 0 0 0 0 0 0 0 0 -0 0 0 0 -0 -0 -0 -0 0 0 0 0
0 0 0 0 0 0 0 0 0 0 -0 -0 0 0 -0 -0 -0 -0 0 0 0 0
0 0 0 0 0 0 0 0 0 0 0 -0 -0 0 0 -0 0 -0 0 0 0 0
0 0 0 0 0 0 0 0 0 0 0 0 0 0 0 -0 0 -0 0 0 0 0
0 0 0 0 0 0 0 0 0 0 0 0 0 -0 0 0 0 -0 -0 0 0 0
0 0 0 0 0 0 0 0 0 0 0 0 0 -0 -0 0 0 0 -0 0 0 0
0 0 0 0 0 0 0 0 0 0 -0 -0 0 0 0 0 0 0 -0 0 0 0
0 0 0 0 0 0 0 0 0 0 -0 -0 0 0 0 0 0 0 0 -0 0 0
0 0 0 0 0 0 0 0 0 0 -0 -0 -0 0 0 0 -0 0 0 0 0 0
0 0 0 0 0 0 0 0 0 0 0 0 0 0 0 0 0 0 0 0 0 0
0 0 0 0 0 0 0 0 0 0 0 0 0 0 0 0 0 0 -0 0 0 0
0 0 0 0 0 0 0 -0 -0 0 0 0 0 0 0 0 0 0 0 -0 0 0
Wind_Speed_500mb
107 89 89 92 79 81 93 92 84 89 85 61 76 82 80 68 62 91 96 107 126 120
107 102 104 76 97 92 75 78 80 75 79 80 66 79 84 71 60 75 60 114 137 116
120 110 91 98 98 72 80 86 80 73 73 70 58 71 78 79 60 64 91 57 131 117
118 110 98 93 89 89 76 74 68 76 72 72 67 46 75 68 69 56 61 78 98 116
116 112 100 92 94 92 80 72 71 80 74 72 73 58 63 59 65 57 46 21 104 121
118 108 101 95 96 89 79 82 71 73 68 65 75 68 46 66 68 58 58 64 43 125
117 107 101 96 96 87 82 75 69 62 62 62 68 76 59 46 62 69 58 59 43 114
115 109 101 95 90 91 82 73 79 70 55 73 72 75 81 49 60 68 57 53 62 101
117 108 105 98 86 90 85 79 79 71 75 66 68 66 86 79 67 71 71 50 63 45
118 112 107 99 90 83 80 74 72 73 69 74 65 60 64 91 87 79 79 55 63 64
120 109 104 95 85 77 74 73 72 72 67 69 66 58 60 77 91 89 81 71 60 45
115 105 101 94 91 90 87 81 75 71 68 63 65 58 50 56 62 74 82 76 73 59
108 101 100 92 90 84 79 79 78 69 59 51 58 52 45 39 56 77 79 75 77 60
104 102 94 89 87 80 73 73 68 64 52 44 49 51 38 41 55 73 73 72 69 71
Wind_Direction_500mb
331 325 313 320 310 300 295 299 290 277 276 285 280 282 295 280 273 264 275 207 194 195
330 321 321 316 309 307 303 295 294 287 275 281 287 281 285 291 276 261 298 202 200 196
328 326 317 309 321 305 291 290 293 292 274 266 277 271 279 289 278 256 258 270 198 190
329 326 317 309 311 307 302 294 290 287 284 269 264 276 269 279 272 266 261 269 212 193
329 329 321 312 311 312 307 297 291 281 284 267 257 264 268 274 266 270 249 309 198 202
332 328 318 316 312 308 302 297 290 280 281 276 258 255 265 276 276 272 251 263 291 204
332 325 319 313 312 308 305 300 295 286 284 282 272 252 255 268 271 269 261 252 267 202
331 327 319 315 308 304 302 294 288 278 278 275 279 258 246 250 264 268 269 257 249 207
333 323 319 320 312 305 301 295 292 283 269 270 273 268 242 243 249 263 269 250 239 229
330 326 323 322 320 315 309 305 294 287 279 264 270 269 257 237 243 253 261 264 248 263
334 328 329 328 326 323 318 311 305 299 287 268 260 266 259 242 239 250 258 265 244 255
337 334 335 332 330 325 319 313 306 302 296 277 262 264 257 244 239 248 254 258 236 244
339 342 337 333 322 324 319 308 304 302 295 279 264 248 245 227 237 242 250 255 241 235
345 346 340 334 335 331 329 324 313 304 297 282 261 250 243 236 238 243 251 249 238 236
Wind_Speed_850mb
107 89 89 92 79 81 93 92 84 89 85 61 76 82 80 68 62 91 96 107 126 120
107 102 104 76 97 92 75 78 80 75 79 80 66 79 84 71 60 75 60 114 137 116
120 110 91 98 98 72 80 86 80 73 73 70 58 71 78 79 60 64 91 57 131 117
118 110 98 93 89 89 76 74 68 76 72 72 67 46 75 68 69 56 61 78 98 116
116 112 100 92 94 92 80 72 71 80 74 72 73 58 63 59 65 57 46 21 104 121
118 108 101 95 96 89 79 82 71 73 68 65 75 68 46 66 68 58 58 64 43 125
117 107 101 96 96 87 82 75 69 62 62 62 68 76 59 46 62 69 58 59 43 114
115 109 101 95 90 91 82 73 79 70 55 73 72 75 81 49 60 68 57 53 62 101
117 108 105 98 86 90 85 79 79 71 75 66 68 66 86 79 67 71 71 50 63 45
118 112 107 99 90 83 80 74 72 73 69 74 65 60 64 91 87 79 79 55 63 64
120 109 104 95 85 77 74 73 72 72 67 69 66 58 60 77 91 89 81 71 60 45
115 105 101 94 91 90 87 81 75 71 68 63 65 58 50 56 62 74 82 76 73 59
108 101 100 92 90 84 79 79 78 69 59 51 58 52 45 39 56 77 79 75 77 60
104 102 94 89 87 80 73 73 68 64 52 44 49 51 38 41 55 73 73 72 69 71
Wind_Direction_850mb
331 325 313 320 310 300 295 299 290 277 276 285 280 282 295 280 273 264 275 207 194 195
330 321 321 316 309 307 303 295 294 287 275 281 287 281 285 291 276 261 298 202 200 196
328 326 317 309 321 305 291 290 293 292 274 266 277 271 279 289 278 256 258 270 198 190
329 326 317 309 311 307 302 294 290 287 284 269 264 276 269 279 272 266 261 269 212 193
329 329 321 312 311 312 307 297 291 281 284 267 257 264 268 274 266 270 249 309 198 202
332 328 318 316 312 308 302 297 290 280 281 276 258 255 265 276 276 272 251 263 291 204
332 325 319 313 312 308 305 300 295 286 284 282 272 252 255 268 271 269 261 252 267 202
331 327 319 315 308 304 302 294 288 278 278 275 279 258 246 250 264 268 269 257 249 207
333 323 319 320 312 305 301 295 292 283 269 270 273 268 242 243 249 263 269 250 239 229
330 326 323 322 320 315 309 305 294 287 279 264 270 269 257 237 243 253 261 264 248 263
334 328 329 328 326 323 318 311 305 299 287 268 260 266 259 242 239 250 258 265 244 255
337 334 335 332 330 325 319 313 306 302 296 277 262 264 257 244 239 248 254 258 236 244
339 342 337 333 322 324 319 308 304 302 295 279 264 248 245 227 237 242 250 255 241 235
345 346 340 334 335 331 329 324 313 304 297 282 261 250 243 236 238 243 251 249 238 236